GW6960 Weather Reports


Display with metric or nautical units.
time (UTC)temp
F
wind
direction
speed
MPH
gust
MPH
rain 1hr
in
rain 24hr
in
rain mn
in
humidity
%
barometer
mb
20260505080610 67 166 2.0 8.0 0.00 0.00 0.00 93
20260505080310 67 126 4.0 7.0 0.00 0.00 0.00 93
20260505080008 67 200 7.0 10.0 0.00 0.00 0.00 93
20260505074214 67 157 6.0 8.0 0.00 0.00 0.00 93
20260505073911 67 207 9.0 14.0 0.00 0.00 0.00 93
20260505073616 67 137 7.0 12.0 0.00 0.00 0.00 93
20260505073316 67 159 6.0 11.0 0.00 0.00 0.00 93
20260505073020 67 158 11.0 15.0 0.00 0.00 0.00 93
20260505072715 67 138 4.0 9.0 0.00 0.00 0.00 93
20260505072414 67 129 5.0 11.0 0.00 0.00 0.00 93
20260505072113 67 132 9.0 16.0 0.00 0.00 0.00 93
20260505071812 68 173 6.0 11.0 0.00 0.00 0.00 93
20260505071512 68 154 7.0 15.0 0.00 0.00 0.00 92
20260505071210 68 129 6.0 15.0 0.00 0.00 0.00 92
20260505070906 68 154 7.0 12.0 0.00 0.00 0.00 92
20260505070615 68 123 6.0 12.0 0.00 0.00 0.00 92
20260505070321 68 159 8.0 12.0 0.00 0.00 0.00 92
20260505070008 68 164 13.0 16.0 0.00 0.00 0.00 92
20260505064512 68 179 12.0 15.0 0.00 0.00 0.00 91
20260505064211 68 159 10.0 14.0 0.00 0.00 0.00 91
20260505063907 68 169 10.0 16.0 0.00 0.00 0.00 91
20260505063617 68 159 10.0 15.0 0.00 0.00 0.00 90
20260505063310 68 149 8.0 17.0 0.00 0.00 0.00 90
20260505063008 68 144 13.0 17.0 0.00 0.00 0.00 90
20260505062708 68 144 12.0 18.0 0.00 0.00 0.00 90
20260505062417 67 144 10.0 18.0 0.00 0.00 0.00 91
20260505062118 67 164 10.0 15.0 0.00 0.00 0.00 92
20260505061817 68 200 11.0 16.0 0.00 0.00 0.00 92
20260505061508 68 136 4.0 11.0 0.00 0.00 0.00 92
20260505061220 68 183 11.0 15.0 0.00 0.00 0.00 92
20260505060912 68 157 10.0 15.0 0.00 0.00 0.00 92
20260505060616 68 145 11.0 17.0 0.00 0.00 0.00 92
20260505060315 68 129 8.0 12.0 0.00 0.00 0.00 92
20260505060010 68 175 12.0 20.0 0.00 0.00 0.00 92
20260505054215 68 153 12.0 16.0 0.00 0.00 0.00 92
20260505053911 68 186 6.0 17.0 0.00 0.00 0.00 92
20260505053610 68 197 8.0 15.0 0.00 0.00 0.00 92
20260505053314 68 184 8.0 17.0 0.00 0.00 0.00 92
20260505053007 68 145 9.0 15.0 0.00 0.00 0.00 93
20260505052718 68 180 12.0 15.0 0.00 0.00 0.00 93
20260505052416 68 150 11.0 15.0 0.00 0.00 0.00 93
20260505052114 68 163 14.0 18.0 0.00 0.00 0.00 92
20260505051810 68 119 9.0 18.0 0.00 0.00 0.00 92
20260505051510 68 191 7.0 15.0 0.00 0.00 0.00 92
20260505051210 68 184 11.0 17.0 0.00 0.00 0.00 92
20260505050908 68 163 8.0 16.0 0.00 0.00 0.00 92
20260505050617 68 144 9.0 17.0 0.00 0.00 0.00 92
20260505050317 68 135 8.0 18.0 0.00 0.00 0.00 92
20260505041516 68 189 10.0 18.0 0.00 0.00 0.00 92
20260505041221 68 181 12.0 17.0 0.00 0.00 0.00 92
20260505040915 68 210 15.0 18.0 0.00 0.00 0.00 92
20260505040614 68 183 12.0 16.0 0.00 0.00 0.00 92
20260505040312 68 231 11.0 15.0 0.00 0.00 0.00 92
20260505040012 68 188 12.0 14.0 0.00 0.00 0.00 92
20260505034212 68 106 4.0 10.0 0.00 0.00 0.00 92
20260505033911 68 162 8.0 10.0 0.00 0.00 0.00 91
20260505033610 68 122 4.0 9.0 0.00 0.00 0.00 91
20260505033310 68 151 7.0 14.0 0.00 0.00 0.00 91
20260505033008 68 226 9.0 12.0 0.00 0.00 0.00 91
20260505032707 68 134 6.0 7.0 0.00 0.00 0.00 91
20260505032412 68 185 5.0 9.0 0.00 0.00 0.00 91
20260505032114 68 164 5.0 7.0 0.00 0.00 0.00 90
20260505031809 68 180 4.0 9.0 0.00 0.00 0.00 90
20260505031508 68 172 6.0 8.0 0.00 0.00 0.00 90
20260505031207 68 126 5.0 10.0 0.00 0.00 0.00 90
20260505030916 68 215 9.0 12.0 0.00 0.00 0.00 90
20260505030616 68 174 6.0 11.0 0.00 0.00 0.00 90
20260505030314 68 149 10.0 11.0 0.00 0.00 0.00 90
20260505030008 68 198 10.0 11.0 0.00 0.00 0.00 90
20260505024208 68 178 8.0 12.0 0.00 0.00 0.00 90
20260505023915 68 168 8.0 10.0 0.00 0.00 0.00 90
20260505023612 68 154 7.0 10.0 0.00 0.00 0.00 90
20260505023307 67 207 4.0 12.0 0.00 0.00 0.00 90
20260505023016 67 142 7.0 8.0 0.00 0.00 0.00 91
20260505022713 67 183 5.0 10.0 0.00 0.00 0.00 91
20260505022418 67 133 6.0 12.0 0.00 0.00 0.00 91
20260505022110 67 132 5.0 9.0 0.00 0.00 0.00 90
20260505021818 67 207 8.0 10.0 0.00 0.00 0.00 90
20260505021513 67 165 7.0 9.0 0.00 0.00 0.00 90
20260505021211 67 157 4.0 7.0 0.00 0.00 0.00 90
20260505020907 67 176 5.0 8.0 0.00 0.00 0.00 90
20260505020615 68 144 5.0 7.0 0.00 0.00 0.00 90
20260505020312 68 183 7.0 11.0 0.00 0.00 0.00 90
20260505020009 68 177 7.0 9.0 0.00 0.00 0.00 90
20260505014211 68 182 4.0 8.0 0.00 0.00 0.00 89
20260505013919 68 164 8.0 12.0 0.00 0.00 0.00 88
20260505013617 68 162 6.0 7.0 0.00 0.00 0.00 88
20260505013315 68 150 5.0 9.0 0.00 0.00 0.00 88
20260505013011 68 187 6.0 8.0 0.00 0.00 0.00 88
20260505012708 68 155 7.0 9.0 0.00 0.00 0.00 88
20260505012417 68 160 7.0 8.0 0.00 0.00 0.00 88
20260505012111 68 171 6.0 10.0 0.00 0.00 0.00 88
20260505011819 68 171 12.0 14.0 0.00 0.00 0.00 88
20260505011517 68 148 7.0 12.0 0.00 0.00 0.00 88
20260505011215 68 161 10.0 12.0 0.00 0.00 0.00 88
20260505010908 68 174 7.0 10.0 0.00 0.00 0.00 88
20260505010618 68 186 5.0 10.0 0.00 0.00 0.00 87
20260505010317 68 174 6.0 10.0 0.00 0.00 0.00 87
20260505010012 68 210 7.0 9.0 0.00 0.00 0.00 87
20260505010000 68 145 5.0 14.0 0.00 0.00 0.00 87
20260505004209 68 120 8.0 10.0 0.00 0.00 0.00 88
20260505003915 68 165 7.0 10.0 0.00 0.00 0.00 89
20260505003612 68 158 8.0 12.0 0.00 0.00 0.00 89
20260505003308 68 178 6.0 7.0 0.00 0.00 0.00 89
20260505003016 68 205 4.0 7.0 0.00 0.00 0.00 89
20260505002713 68 163 3.0 8.0 0.00 0.00 0.00 89
20260505002410 68 100 5.0 11.0 0.00 0.00 0.00 89
20260505002107 68 153 3.0 4.0 0.00 0.00 0.00 89
20260505001815 68 225 6.0 9.0 0.00 0.00 0.00 89
20260505001519 68 149 4.0 9.0 0.00 0.00 0.00 89
20260505001217 68 165 5.0 7.0 0.00 0.00 0.00 89
20260505000913 68 178 4.0 8.0 0.00 0.00 0.00 89
20260505000616 68 178 6.0 10.0 0.00 0.00 0.00 89
20260505000308 68 178 6.0 8.0 0.00 0.00 0.00 89
20260505000014 68 164 7.0 9.0 0.00 0.00 0.00 89
20260505000002 68 169 7.0 11.0 0.00 0.00 0.00 89
20260504234215 68 162 5.0 7.0 0.00 0.00 0.00 89
20260504233912 68 151 5.0 11.0 0.00 0.00 0.00 88
20260504233617 68 164 6.0 9.0 0.00 0.00 0.00 88
20260504233310 68 178 5.0 7.0 0.00 0.00 0.00 88
20260504233017 68 203 7.0 9.0 0.00 0.00 0.00 88
20260504232713 68 164 6.0 8.0 0.00 0.00 0.00 88
20260504232411 68 202 8.0 11.0 0.00 0.00 0.00 89
20260504232108 68 164 3.0 4.0 0.00 0.00 0.00 89
20260504231815 68 168 3.0 7.0 0.00 0.00 0.00 89
20260504231512 68 171 3.0 7.0 0.00 0.00 0.00 90
20260504231209 68 184 6.0 7.0 0.00 0.00 0.00 90
20260504230919 68 216 3.0 4.0 0.00 0.00 0.00 90
20260504230617 68 104 1.0 4.0 0.00 0.00 0.00 90
20260504230314 68 156 4.0 6.0 0.00 0.00 0.00 91
20260504230013 68 142 6.0 12.0 0.00 0.00 0.00 91
20260504224214 68 171 11.0 15.0 0.00 0.00 0.00 91
20260504223912 68 167 10.0 11.0 0.00 0.00 0.00 91
20260504223609 68 166 9.0 15.0 0.00 0.00 0.00 91
20260504223308 69 194 7.0 16.0 0.00 0.00 0.00 91
20260504223016 68 182 9.0 14.0 0.00 0.00 0.00 91
20260504222715 69 188 11.0 15.0 0.00 0.00 0.00 91
20260504222411 69 179 9.0 21.0 0.00 0.00 0.00 91
20260504222119 69 197 9.0 20.0 0.00 0.00 0.00 91
20260504221815 69 108 11.0 15.0 0.00 0.00 0.00 91
20260504221513 69 200 10.0 20.0 0.00 0.00 0.00 91
20260504221210 69 192 9.0 17.0 0.00 0.00 0.00 91
20260504220918 69 171 9.0 16.0 0.00 0.00 0.00 92
20260504220616 69 196 16.0 21.0 0.00 0.00 0.00 91
20260504220313 69 199 13.0 17.0 0.00 0.00 0.00 92
20260504220010 69 141 4.0 14.0 0.00 0.00 0.00 92
20260504214218 69 204 9.0 11.0 0.00 0.00 0.00 91
20260504213918 69 182 13.0 15.0 0.00 0.00 0.00 91
20260504213615 69 203 11.0 12.0 0.00 0.00 0.00 91
20260504213310 69 212 13.0 15.0 0.00 0.00 0.00 91
20260504213019 69 175 8.0 12.0 0.00 0.00 0.00 91
20260504212716 69 191 10.0 14.0 0.00 0.00 0.00 91
20260504212414 69 159 8.0 14.0 0.00 0.00 0.00 91
20260504212109 69 156 4.0 15.0 0.00 0.00 0.00 91
20260504211818 69 194 9.0 14.0 0.00 0.00 0.00 91
20260504211517 69 127 5.0 16.0 0.00 0.00 0.00 91
20260504211214 69 214 7.0 14.0 0.00 0.00 0.00 91
20260504210916 69 199 10.0 14.0 0.00 0.00 0.00 91
20260504210612 69 187 10.0 12.0 0.00 0.00 0.00 91
20260504210308 69 183 10.0 22.0 0.00 0.00 0.00 91
20260504210018 69 165 9.0 20.0 0.00 0.00 0.00 92
20260504210006 69 202 12.0 18.0 0.00 0.00 0.00 92
20260504204219 69 174 10.0 15.0 0.00 0.00 0.00 92
20260504203917 69 167 12.0 20.0 0.00 0.00 0.00 92
20260504203612 69 193 15.0 18.0 0.00 0.00 0.00 92
20260504203320 69 214 8.0 16.0 0.00 0.00 0.00 92
20260504203017 69 178 17.0 21.0 0.00 0.00 0.00 92
20260504202715 69 216 12.0 22.0 0.00 0.00 0.00 92
20260504202411 70 196 9.0 12.0 0.00 0.00 0.00 92
20260504202120 69 168 11.0 21.0 0.00 0.00 0.00 91
20260504201816 69 182 13.0 17.0 0.00 0.00 0.00 91
20260504201512 70 190 14.0 22.0 0.00 0.00 0.00 91
20260504201220 70 170 12.0 16.0 0.00 0.00 0.00 91
20260504200915 70 184 12.0 20.0 0.00 0.00 0.00 90
20260504200617 70 220 11.0 18.0 0.00 0.00 0.00 90
20260504200315 70 147 9.0 17.0 0.00 0.00 0.00 90
20260504200013 69 207 14.0 18.0 0.00 0.00 0.00 90
20260504200001 70 176 15.0 20.0 0.00 0.00 0.00 90
20260504194209 70 208 12.0 17.0 0.00 0.00 0.00 89
20260504193915 70 187 14.0 16.0 0.00 0.00 0.00 89
20260504193611 70 239 9.0 17.0 0.00 0.00 0.00 89
20260504193318 70 235 16.0 21.0 0.00 0.00 0.00 88
20260504193017 70 177 10.0 15.0 0.00 0.00 0.00 88
20260504192711 70 126 12.0 16.0 0.00 0.00 0.00 88
20260504192409 70 183 17.0 24.0 0.00 0.00 0.00 87
20260504192119 71 206 12.0 20.0 0.00 0.00 0.00 87
20260504191817 70 180 11.0 17.0 0.00 0.00 0.00 86
20260504191514 70 216 17.0 18.0 0.00 0.00 0.00 86
20260504191213 71 221 12.0 22.0 0.00 0.00 0.00 86
20260504190919 71 216 15.0 18.0 0.00 0.00 0.00 85
20260504190616 70 185 15.0 18.0 0.00 0.00 0.00 85
20260504190315 70 171 12.0 18.0 0.00 0.00 0.00 86
20260504190012 70 197 14.0 17.0 0.00 0.00 0.00 86
20260504190000 70 152 11.0 18.0 0.00 0.00 0.00 86
20260504184220 71 205 10.0 20.0 0.00 0.00 0.00 85
20260504183919 71 177 10.0 16.0 0.00 0.00 0.00 84
20260504183619 71 257 17.0 23.0 0.00 0.00 0.00 83
20260504183318 72 179 14.0 18.0 0.00 0.00 0.00 83
20260504182713 71 210 15.0 24.0 0.00 0.00 0.00 83
20260504182413 71 169 11.0 20.0 0.00 0.00 0.00 82
20260504182113 71 226 10.0 15.0 0.00 0.00 0.00 82
20260504181811 71 170 12.0 20.0 0.00 0.00 0.00 81
20260504181511 71 200 17.0 22.0 0.00 0.00 0.00 81
20260504181210 71 210 18.0 22.0 0.00 0.00 0.00 81
20260504180911 71 180 12.0 16.0 0.00 0.00 0.00 81
20260504180610 71 192 10.0 17.0 0.00 0.00 0.00 82
20260504180309 72 183 14.0 17.0 0.00 0.00 0.00 81
20260504180009 71 220 15.0 21.0 0.00 0.00 0.00 81
20260504174213 71 193 17.0 23.0 0.00 0.00 0.00 81
20260504173911 71 211 14.0 20.0 0.00 0.00 0.00 81
20260504173610 72 202 11.0 20.0 0.00 0.00 0.00 80
20260504173319 72 191 11.0 21.0 0.00 0.00 0.00 80
20260504173015 72 169 14.0 18.0 0.00 0.00 0.00 78
20260504172715 72 197 15.0 22.0 0.00 0.00 0.00 78
20260504172414 72 204 15.0 22.0 0.00 0.00 0.00 77
20260504172113 72 205 16.0 21.0 0.00 0.00 0.00 77
20260504171814 72 197 13.0 22.0 0.00 0.00 0.00 76
20260504171514 72 184 15.0 21.0 0.00 0.00 0.00 76
20260504171213 72 187 12.0 22.0 0.00 0.00 0.00 76
20260504170911 72 183 13.0 16.0 0.00 0.00 0.00 76
20260504170621 72 179 9.0 20.0 0.00 0.00 0.00 74
20260504170321 73 138 9.0 18.0 0.00 0.00 0.00 74
20260504160314 73 163 14.0 21.0 0.00 0.00 0.00 66
20260504150911 71 164 21.0 32.0 0.00 0.00 0.00 78
20260504150611 71 146 23.0 29.0 0.00 0.00 0.00 81
20260504150314 71 194 16.0 22.0 0.00 0.00 0.00 81
20260504141219 71 209 15.0 23.0 0.00 0.00 0.00 85
20260504140915 70 209 12.0 21.0 0.00 0.00 0.00 85
20260504140613 70 211 13.0 18.0 0.00 0.00 0.00 84
20260504140319 70 146 20.0 25.0 0.00 0.00 0.00 84
20260504130611 69 220 12.0 21.0 0.00 0.00 0.00 82
20260504130320 69 198 7.0 25.0 0.00 0.00 0.00 81
20260504120318 68 169 7.0 17.0 0.00 0.00 0.00 83
20260504110616 67 135 7.0 16.0 0.00 0.00 0.00 91
20260504110316 66 158 13.0 17.0 0.00 0.00 0.00 92
20260504100615 66 168 8.0 12.0 0.00 0.00 0.00 93
20260504100315 66 150 5.0 8.0 0.00 0.00 0.00 93
20260504081816 67 140 7.0 12.0 0.00 0.00 0.00 93
20260504081515 67 116 5.0 10.0 0.00 0.00 0.00 93
20260504081217 67 140 5.0 10.0 0.00 0.00 0.00 93
20260504080915 67 195 11.0 15.0 0.00 0.00 0.00 93